TimeCST,TemperatureF,Dew PointF,Humidity,Sea Level PressureIn,VisibilityMPH,Wind Direction,Wind SpeedMPH,Gust SpeedMPH,PrecipitationIn,Events,Conditions,WindDirDegrees,DateUTC
12:15 AM,42.8,40.3,91,30.18,5.0,WNW,3.5,-,N/A,,Scattered Clouds,290,2012-11-08 06:15:00
12:35 AM,42.8,40.3,91,30.18,5.0,West,3.5,-,N/A,,Mostly Cloudy,280,2012-11-08 06:35:00
12:55 AM,42.8,40.5,91,30.18,5.0,Calm,Calm,-,N/A,,Mostly Cloudy,0,2012-11-08 06:55:00
1:15 AM,42.8,40.5,91,30.18,5.0,Calm,Calm,-,N/A,,Mostly Cloudy,0,2012-11-08 07:15:00
1:35 AM,42.8,40.6,92,30.18,4.0,Calm,Calm,-,N/A,,Mostly Cloudy,0,2012-11-08 07:35:00
1:55 AM,42.8,40.6,92,30.18,4.0,Calm,Calm,-,N/A,,Mostly Cloudy,0,2012-11-08 07:55:00
2:15 AM,42.8,40.6,92,30.18,4.0,Calm,Calm,-,N/A,,Mostly Cloudy,0,2012-11-08 08:15:00
2:35 AM,42.6,40.8,93,30.19,4.0,Calm,Calm,-,N/A,,Overcast,0,2012-11-08 08:35:00
2:55 AM,42.8,40.8,93,30.19,4.0,WSW,3.5,-,N/A,,Overcast,240,2012-11-08 08:55:00
3:15 AM,42.8,40.5,91,30.19,5.0,West,3.5,-,N/A,,Overcast,270,2012-11-08 09:15:00
3:35 AM,42.6,40.5,92,30.19,5.0,West,3.5,-,N/A,,Overcast,270,2012-11-08 09:35:00
3:55 AM,42.8,40.1,90,30.19,5.0,WSW,3.5,-,N/A,,Overcast,240,2012-11-08 09:55:00
4:15 AM,42.4,40.1,91,30.19,5.0,Calm,Calm,-,N/A,,Overcast,0,2012-11-08 10:15:00
4:35 AM,42.4,39.7,90,30.20,5.0,Calm,Calm,-,N/A,,Overcast,0,2012-11-08 10:35:00
4:55 AM,43.0,38.7,85,30.20,7.0,WSW,3.5,-,N/A,,Overcast,250,2012-11-08 10:55:00
5:15 AM,43.3,37.8,81,30.21,10.0,WSW,4.6,-,N/A,,Overcast,240,2012-11-08 11:15:00
5:35 AM,43.2,37.9,82,30.21,10.0,SW,4.6,-,N/A,,Overcast,230,2012-11-08 11:35:00
5:55 AM,43.7,36.5,76,30.21,10.0,SW,3.5,-,N/A,,Overcast,220,2012-11-08 11:55:00
6:15 AM,43.0,37.8,82,30.21,10.0,SW,3.5,-,N/A,,Overcast,220,2012-11-08 12:15:00
6:35 AM,42.8,37.4,81,30.22,7.0,SSW,3.5,-,N/A,,Overcast,200,2012-11-08 12:35:00
6:55 AM,43.2,37.6,81,30.22,7.0,South,3.5,-,N/A,,Overcast,190,2012-11-08 12:55:00
7:15 AM,43.7,36.9,77,30.22,7.0,South,3.5,-,N/A,,Overcast,190,2012-11-08 13:15:00
7:35 AM,43.7,38.1,81,30.23,7.0,South,3.5,-,N/A,,Mostly Cloudy,190,2012-11-08 13:35:00
7:55 AM,43.7,38.7,82,30.24,5.0,Calm,Calm,-,N/A,,Haze,0,2012-11-08 13:55:00
8:15 AM,44.1,38.8,82,30.24,5.0,Calm,Calm,-,N/A,,Haze,0,2012-11-08 14:15:00
8:35 AM,44.1,39.6,84,30.24,5.0,SSW,4.6,-,N/A,,Scattered Clouds,210,2012-11-08 14:35:00
8:55 AM,44.1,40.3,87,30.24,4.0,SSW,4.6,-,N/A,,Scattered Clouds,210,2012-11-08 14:55:00
9:15 AM,44.6,40.3,85,30.24,5.0,SSW,5.8,-,N/A,,Haze,210,2012-11-08 15:15:00
9:35 AM,45.5,38.8,78,30.24,5.0,SSW,4.6,-,N/A,,Haze,210,2012-11-08 15:35:00
9:55 AM,45.5,36.7,71,30.24,7.0,SW,8.1,-,N/A,,Scattered Clouds,220,2012-11-08 15:55:00
10:15 AM,45.7,35.6,68,30.25,10.0,SW,9.2,-,N/A,,Scattered Clouds,230,2012-11-08 16:15:00
10:35 AM,45.9,35.6,67,30.24,10.0,WSW,6.9,-,N/A,,Scattered Clouds,240,2012-11-08 16:35:00
10:55 AM,45.9,35.4,67,30.24,10.0,SSW,6.9,-,N/A,,Scattered Clouds,210,2012-11-08 16:55:00
11:15 AM,46.2,35.1,65,30.23,10.0,SSW,5.8,-,N/A,,Mostly Cloudy,200,2012-11-08 17:15:00
11:35 AM,46.8,35.1,64,30.22,10.0,SW,5.8,-,N/A,,Mostly Cloudy,220,2012-11-08 17:35:00
11:55 AM,47.5,35.4,63,30.21,10.0,SSW,9.2,-,N/A,,Mostly Cloudy,210,2012-11-08 17:55:00
12:15 PM,47.7,35.8,63,30.20,10.0,SSW,6.9,-,N/A,,Mostly Cloudy,210,2012-11-08 18:15:00
12:35 PM,47.5,36.0,64,30.19,10.0,SSW,5.8,-,N/A,,Mostly Cloudy,200,2012-11-08 18:35:00
12:55 PM,48.2,36.1,63,30.19,10.0,South,5.8,-,N/A,,Overcast,180,2012-11-08 18:55:00
1:15 PM,47.8,36.5,65,30.18,10.0,South,6.9,-,N/A,,Scattered Clouds,180,2012-11-08 19:15:00
1:35 PM,48.4,37.0,65,30.18,10.0,South,8.1,-,N/A,,Scattered Clouds,180,2012-11-08 19:35:00
1:55 PM,48.2,37.2,66,30.17,10.0,South,8.1,-,N/A,,Mostly Cloudy,190,2012-11-08 19:55:00
2:15 PM,48.6,36.9,64,30.17,10.0,South,8.1,-,N/A,,Mostly Cloudy,180,2012-11-08 20:15:00
2:35 PM,48.6,37.2,65,30.16,10.0,South,8.1,-,N/A,,Scattered Clouds,180,2012-11-08 20:35:00
2:55 PM,50.4,37.9,62,30.16,10.0,SSW,9.2,-,N/A,,Scattered Clouds,200,2012-11-08 20:55:00
3:15 PM,48.7,38.3,67,30.16,10.0,South,8.1,-,N/A,,Scattered Clouds,170,2012-11-08 21:15:00
3:35 PM,48.9,38.1,66,30.15,10.0,South,6.9,-,N/A,,Scattered Clouds,190,2012-11-08 21:35:00
3:55 PM,48.6,38.8,69,30.14,10.0,South,10.4,-,N/A,,Clear,170,2012-11-08 21:55:00
4:15 PM,47.3,39.4,74,30.14,10.0,South,8.1,-,N/A,,Clear,170,2012-11-08 22:15:00
4:35 PM,45.9,39.2,78,30.14,7.0,South,6.9,-,N/A,,Clear,170,2012-11-08 22:35:00
4:55 PM,44.6,38.8,80,30.14,7.0,SSE,5.8,-,N/A,,Clear,150,2012-11-08 22:55:00
5:15 PM,44.1,38.7,81,30.14,7.0,SSE,4.6,-,N/A,,Clear,150,2012-11-08 23:15:00
5:35 PM,42.3,38.5,86,30.14,7.0,SSE,4.6,-,N/A,,Clear,160,2012-11-08 23:35:00
5:55 PM,43.2,38.7,84,30.15,7.0,SSE,6.9,-,N/A,,Clear,150,2012-11-08 23:55:00
6:15 PM,41.2,37.9,88,30.15,7.0,SSE,5.8,-,N/A,,Clear,150,2012-11-09 00:15:00
6:35 PM,41.7,37.8,86,30.15,7.0,SSE,5.8,-,N/A,,Clear,150,2012-11-09 00:35:00
6:55 PM,41.0,37.4,87,30.14,7.0,SE,6.9,-,N/A,,Clear,140,2012-11-09 00:55:00
7:15 PM,39.9,36.7,88,30.14,5.0,SE,6.9,-,N/A,,Clear,140,2012-11-09 01:15:00
7:35 PM,40.1,37.0,89,30.14,5.0,SE,8.1,-,N/A,,Clear,140,2012-11-09 01:35:00
7:55 PM,39.6,36.7,89,30.14,5.0,SE,6.9,-,N/A,,Clear,140,2012-11-09 01:55:00
8:15 PM,38.8,36.5,91,30.13,5.0,SE,6.9,-,N/A,,Clear,140,2012-11-09 02:15:00
8:35 PM,38.8,36.5,91,30.13,5.0,SSE,8.1,-,N/A,,Clear,150,2012-11-09 02:35:00
8:55 PM,38.3,36.5,93,30.13,5.0,SE,6.9,-,N/A,,Clear,140,2012-11-09 02:55:00
9:15 PM,38.3,36.5,93,30.12,4.0,SSE,6.9,-,N/A,,Clear,150,2012-11-09 03:15:00
9:35 PM,38.5,36.7,93,30.12,4.0,SE,6.9,-,N/A,,Clear,140,2012-11-09 03:35:00
9:55 PM,38.3,36.5,93,30.12,4.0,SE,8.1,-,N/A,,Clear,140,2012-11-09 03:55:00
10:15 PM,37.9,36.5,95,30.12,4.0,SSE,5.8,-,N/A,,Clear,150,2012-11-09 04:15:00
10:35 PM,37.8,36.3,95,30.12,4.0,SSE,5.8,-,N/A,,Clear,150,2012-11-09 04:35:00
10:55 PM,37.6,36.0,94,30.12,3.0,SSE,5.8,-,N/A,,Clear,150,2012-11-09 04:55:00
11:15 PM,37.4,36.0,95,30.12,3.0,SSE,6.9,-,N/A,,Clear,160,2012-11-09 05:15:00
11:35 PM,37.4,36.0,95,30.12,3.0,SSE,5.8,-,N/A,,Clear,160,2012-11-09 05:35:00
11:55 PM,36.7,35.6,96,30.12,3.0,SSE,5.8,-,N/A,,Clear,150,2012-11-09 05:55:00